{"data":{"norad_id":61219,"intl_designator":"2024-171V","name":"STARLINK-32248","alt_names":[],"object_type":"PAYLOAD","status":"ACTIVE","operator":null,"country":"US","launch_date":"2024-09-20","launch_site_code":"AFWTR","launch_vehicle":null,"mission":null,"orbit_class":"UNKNOWN","rcs_meters":null,"size_class":null,"mass_kg":null,"dimensions":null,"purposes":["comms"],"wikipedia_slug":null,"has_3d_model":false,"image_url":null,"decayed_at":null,"tle_current":{"epoch":"2026-05-25T04:00:03.998880Z","epoch_age_seconds":63917,"freshness":"FRESH","line1":"1 61219U 24171V   26145.16671295 -.00020996  00000+0 -66645-3 0  9996","line2":"2 61219  53.1601 327.3868 0001173  67.9619 341.1560 15.31711929  5659","mean_motion":15.31711929,"eccentricity":0.0001173,"inclination_deg":53.1601,"raan_deg":327.3868,"arg_perigee_deg":67.9619,"mean_anomaly_deg":341.156,"bstar":-0.00066645,"rev_number":565,"period_min":94.012455784693,"perigee_km":469.90106662775,"apogee_km":471.50780482858,"semimajor_km":6848.8414357282,"source":"CELESTRAK","updated_at":"2026-05-25T13:38:19.363047Z"}}}